Change the Weather History Date:

Saturday, January 25, 2014

  Actual Average Record
Temperature  
Mean Temperature 18 °F -  
Max Temperature 32 °F 23 °F 62 °F (1944)
Min Temperature 5 °F 2 °F -23 °F (1936)
Degree Days  
Heating Degree Days 46    
Moisture  
Dew Point 2 °F    
Average Humidity 64    
Maximum Humidity 86    
Minimum Humidity 46    
Precipitation  
Precipitation 0.00 in - - ()
Sea Level Pressure  
Sea Level Pressure 29.79 in    
Wind  
Wind Speed 20 mph (WNW)    
Max Wind Speed 28 mph    
Max Gust Speed 37 mph    
Visibility 9 miles    
Events Snow    
Averages and records for this station are not official NWS values.
T = Trace of Precipitation, MM = Missing Value Source: NWS Daily Summary

Daily Weather History Graph

Daily Weather History Graph

Search for Another Location

Airport or City:

Trip Planner

Search our weather history database for the weather conditions in past years. The results will help you decide how hot, cold, wet, or windy it might be!

Date:

Astronomy

Jan. 25, 2014 Rise Set
Actual Time 7:38 AM CST 5:14 PM CST
Civil Twilight 7:07 AM CST 5:46 PM CST
Nautical Twilight 6:32 AM CST 6:21 PM CST
Astronomical Twilight 5:58 AM CST 6:55 PM CST
Moon 2:10 AM CST (1/25) 12:16 PM CST (1/25)
Length of Visible Light 10h 38m
Length of Day
9h 36m
Waning Crescent, 34% of the Moon is Illuminated
Jan 25
Waning Crescent
Jan 30
New
Feb 6
First Quarter
Feb 14
Full
Feb 22
Last Quarter

Hourly Weather History & Observations

Time (CST) Temp. Windchill Dew Point Humidity Pressure Visibility Wind Dir Wind Speed Gust Speed Precip Events Conditions
12:15 AM 32.0 °F 18.4 °F 21.2 °F 64% 29.59 in 10.0 mi WNW 26.5 mph 33.4 mph N/A   Overcast
12:35 AM 32.0 °F 19.2 °F 23.0 °F 69% 29.60 in 10.0 mi WNW 23.0 mph 29.9 mph N/A   Overcast
12:55 AM 30.2 °F 16.8 °F 21.2 °F 69% 29.61 in 10.0 mi WNW 23.0 mph 27.6 mph N/A   Overcast
1:15 AM 30.2 °F 17.1 °F 21.2 °F 69% 29.62 in 10.0 mi WNW 21.9 mph 29.9 mph N/A   Overcast
1:35 AM 26.6 °F 12.0 °F 19.4 °F 74% 29.63 in 10.0 mi NW 23.0 mph 31.1 mph N/A   Overcast
1:55 AM 23.0 °F 6.0 °F 10.4 °F 59% 29.66 in 10.0 mi NW 27.6 mph 36.8 mph N/A   Scattered Clouds
2:15 AM 21.2 °F 5.2 °F 3.2 °F 46% 29.67 in 10.0 mi NW 21.9 mph 34.5 mph N/A   Clear
2:35 AM 19.4 °F 3.2 °F 5.0 °F 54% 29.69 in 10.0 mi NW 20.7 mph - N/A   Clear
2:55 AM 19.4 °F 2.8 °F 6.8 °F 58% 29.70 in 10.0 mi NW 21.9 mph 32.2 mph N/A   Clear
3:15 AM 17.6 °F 0.5 °F 3.2 °F 53% 29.72 in 10.0 mi NW 21.9 mph 34.5 mph N/A   Clear
3:35 AM 17.6 °F -0.6 °F 3.2 °F 53% 29.73 in 10.0 mi NW 25.3 mph 33.4 mph N/A   Clear
3:55 AM 14.0 °F -5.5 °F 1.4 °F 57% 29.74 in 10.0 mi NW 25.3 mph 36.8 mph N/A   Clear
4:15 AM 14.0 °F -5.5 °F 3.2 °F 62% 29.75 in 10.0 mi WNW 25.3 mph 31.1 mph N/A   Clear
4:36 AM 14.0 °F -4.3 °F 3.2 °F 62% 29.76 in 10.0 mi WNW 21.9 mph 28.8 mph N/A   Clear
4:55 AM 12.2 °F -7.9 °F -0.4 °F 57% 29.77 in 10.0 mi WNW 25.3 mph 32.2 mph N/A   Clear
5:15 AM 12.2 °F -6.3 °F -0.4 °F 57% 29.78 in 10.0 mi WNW 20.7 mph 27.6 mph N/A   Clear
5:35 AM 10.4 °F -10.3 °F -0.4 °F 62% 29.79 in 10.0 mi WNW 25.3 mph 31.1 mph N/A   Clear
5:55 AM 8.6 °F -11.9 °F -4.0 °F 57% 29.81 in 10.0 mi NW 23.0 mph 32.2 mph N/A   Clear
6:15 AM 8.6 °F -11.0 °F -4.0 °F 57% 29.81 in 10.0 mi NW 20.7 mph 33.4 mph N/A   Clear
6:36 AM 8.6 °F -11.4 °F -4.0 °F 57% 29.81 in 10.0 mi NW 21.9 mph 28.8 mph N/A   Clear
6:55 AM 6.8 °F -12.9 °F -5.8 °F 56% 29.83 in 10.0 mi NW 19.6 mph 33.4 mph N/A   Clear
7:15 AM 6.8 °F -11.3 °F -5.8 °F 56% 29.85 in 10.0 mi WNW 16.1 mph - N/A   Clear
7:35 AM 5.0 °F -15.7 °F -4.0 °F 66% 29.86 in 10.0 mi WNW 20.7 mph 27.6 mph N/A   Clear
7:56 AM 5.0 °F -17.1 °F -5.8 °F 61% 29.88 in 10.0 mi WNW 24.2 mph 31.1 mph N/A   Clear
8:16 AM 5.0 °F -16.7 °F -5.8 °F 61% 29.88 in 10.0 mi WNW 23.0 mph 29.9 mph N/A   Clear
8:35 AM 5.0 °F -16.2 °F -5.8 °F 61% 29.90 in 10.0 mi NW 21.9 mph 29.9 mph N/A   Clear
8:55 AM 5.0 °F -16.7 °F -5.8 °F 61% 29.91 in 10.0 mi WNW 23.0 mph 28.8 mph N/A   Clear
9:15 AM 5.0 °F -16.7 °F -5.8 °F 61% 29.92 in 10.0 mi NW 23.0 mph 31.1 mph N/A   Clear
9:35 AM 5.0 °F -16.2 °F -4.0 °F 66% 29.93 in 10.0 mi NW 21.9 mph 29.9 mph N/A   Clear
9:55 AM 5.0 °F -17.1 °F -4.0 °F 66% 29.93 in 10.0 mi WNW 24.2 mph 29.9 mph N/A   Clear
10:15 AM 6.8 °F -13.4 °F -4.0 °F 61% 29.94 in 10.0 mi NW 20.7 mph - N/A   Clear
10:36 AM 6.8 °F -14.7 °F -4.0 °F 61% 29.94 in 10.0 mi NW 24.2 mph 31.1 mph N/A   Clear
10:55 AM 6.8 °F -13.4 °F -4.0 °F 61% 29.95 in 10.0 mi NW 20.7 mph 25.3 mph N/A   Clear
11:15 AM 6.8 °F -14.3 °F -4.0 °F 61% 29.95 in 10.0 mi WNW 23.0 mph 29.9 mph N/A   Clear
11:36 AM 6.8 °F -14.7 °F -4.0 °F 61% 29.94 in 10.0 mi NW 24.2 mph 29.9 mph N/A   Clear
11:55 AM 8.6 °F -11.4 °F -4.0 °F 57% 29.94 in 10.0 mi WNW 21.9 mph 29.9 mph N/A   Clear
12:16 PM 8.6 °F -11.0 °F -4.0 °F 57% 29.94 in 10.0 mi WNW 20.7 mph 25.3 mph N/A   Clear
12:35 PM 8.6 °F -10.0 °F -4.0 °F 57% 29.93 in 10.0 mi WNW 18.4 mph - N/A   Clear
12:55 PM 8.6 °F -11.9 °F -2.2 °F 62% 29.93 in 10.0 mi WNW 23.0 mph - N/A   Clear
1:16 PM 10.4 °F -7.2 °F -0.4 °F 62% 29.92 in 10.0 mi WNW 17.3 mph 21.9 mph N/A   Clear
1:35 PM 10.4 °F -8.2 °F -0.4 °F 62% 29.91 in 10.0 mi WNW 19.6 mph - N/A   Clear
1:55 PM 10.4 °F -7.7 °F -0.4 °F 62% 29.91 in 10.0 mi WNW 18.4 mph - N/A   Clear
2:16 PM 10.4 °F -7.7 °F -2.2 °F 57% 29.89 in 10.0 mi WNW 18.4 mph - N/A   Clear
2:35 PM 12.2 °F -4.8 °F -0.4 °F 57% 29.88 in 10.0 mi WNW 17.3 mph - N/A   Clear
2:55 PM 10.4 °F -7.2 °F -2.2 °F 57% 29.90 in 10.0 mi WNW 17.3 mph - N/A   Clear
3:16 PM 10.4 °F -6.6 °F -0.4 °F 62% 29.89 in 10.0 mi West 16.1 mph - N/A   Clear
3:36 PM 12.2 °F -5.3 °F -0.4 °F 57% 29.90 in 10.0 mi WNW 18.4 mph 23.0 mph N/A   Clear
3:55 PM 10.4 °F -5.4 °F -0.4 °F 62% 29.89 in 10.0 mi WNW 13.8 mph 18.4 mph N/A   Clear
4:16 PM 12.2 °F -1.8 °F -0.4 °F 57% 29.88 in 10.0 mi West 11.5 mph - N/A   Clear
4:36 PM 12.2 °F -2.5 °F -0.4 °F 57% 29.88 in 10.0 mi WNW 12.7 mph - N/A   Clear
4:55 PM 10.4 °F -4.8 °F -0.4 °F 62% 29.88 in 10.0 mi West 12.7 mph - N/A   Scattered Clouds
5:15 PM 10.4 °F -2.4 °F -0.4 °F 62% 29.87 in 10.0 mi West 9.2 mph - N/A   Scattered Clouds
5:35 PM 10.4 °F 0.8 °F -0.4 °F 62% 29.85 in 10.0 mi WSW 5.8 mph - N/A   Mostly Cloudy
5:55 PM 8.6 °F -4.7 °F -0.4 °F 67% 29.85 in 10.0 mi WSW 9.2 mph - N/A   Scattered Clouds
6:15 PM 10.4 °F -1.5 °F 1.4 °F 67% 29.83 in 10.0 mi WSW 8.1 mph - N/A   Clear
6:35 PM 10.4 °F 0.8 °F 3.2 °F 73% 29.82 in 10.0 mi WSW 5.8 mph - N/A   Scattered Clouds
6:56 PM 12.2 °F 6.1 °F 3.2 °F 67% 29.79 in 10.0 mi SSW 3.5 mph - N/A   Overcast
7:16 PM 12.2 °F 4.3 °F 3.2 °F 67% 29.78 in 10.0 mi South 4.6 mph - N/A   Overcast
7:35 PM 12.2 °F 6.1 °F 3.2 °F 67% 29.77 in 10.0 mi South 3.5 mph - N/A   Overcast
7:56 PM 12.2 °F 4.3 °F 3.2 °F 67% 29.76 in 10.0 mi South 4.6 mph - N/A   Overcast
8:15 PM 12.2 °F 1.7 °F 3.2 °F 67% 29.73 in 10.0 mi SSE 6.9 mph - N/A   Overcast
8:36 PM 12.2 °F 0.7 °F 3.2 °F 67% 29.72 in 10.0 mi SSE 8.1 mph - N/A   Overcast
8:56 PM 12.2 °F 1.7 °F 3.2 °F 67% 29.70 in 10.0 mi SSE 6.9 mph - N/A   Overcast
9:15 PM 14.0 °F 2.9 °F 5.0 °F 67% 29.66 in 5.0 mi ESE 8.1 mph - N/A Snow Light Snow
9:36 PM 14.0 °F 1.2 °F 8.6 °F 79% 29.62 in 1.5 mi ESE 10.4 mph - N/A Snow Light Snow
9:55 PM 14.0 °F 1.2 °F 8.6 °F 79% 29.59 in 1.2 mi SE 10.4 mph - N/A Snow Light Snow
10:15 PM 14.0 °F -0.2 °F 10.4 °F 86% 29.57 in 1.0 mi SE 12.7 mph - N/A Snow Snow
10:35 PM 14.0 °F 0.5 °F 10.4 °F 86% 29.57 in 1.0 mi SE 11.5 mph - N/A Snow Snow
10:55 PM 14.0 °F -0.2 °F 10.4 °F 86% 29.56 in 0.5 mi SE 12.7 mph - N/A Snow Heavy Snow
11:15 PM 14.0 °F -0.8 °F 10.4 °F 86% 29.52 in 0.8 mi SE 13.8 mph - N/A Snow Snow
11:34 PM 14.0 °F -1.4 °F 10.4 °F 86% 29.50 in 0.8 mi SE 15.0 mph - N/A Snow Snow
11:55 PM 14.0 °F -0.2 °F 10.4 °F 86% 29.48 in 0.8 mi ESE 12.7 mph - N/A Snow Snow